When you browse on this site, cookies collect data to enhance your experience and personalize the content and advertising you see.
Visit our Privacy Policy to learn more. By continuing to use the site, you agree to this use of cookies and data.
  • In United Kingdom
  • List of Countries
  • For 7 days
  • Water Temperature
  • Weather Map
  • Weather Widgets
  • user-avatar
    Login

    Hourly Weather Lubumbashi

    Today, 19 September, Thursday

    Time Temperature Precipitation Wind Pressure Humidity
    00:00 +28°C° 0 mm 2 mps 719 mmHg 63%
    01:00 +27°C° 0 mm 2 mps 719 mmHg 66%
    02:00 +27°C° 0 mm 3 mps 718 mmHg 70%
    03:00 +27°C° 0 mm 2 mps 718 mmHg 73%
    04:00 +26°C° 0 mm 2 mps 718 mmHg 77%
    05:00 +26°C° 0 mm 2 mps 719 mmHg 80%
    06:00 +27°C° 0 mm 2 mps 719 mmHg 77%
    07:00 +27°C° 0 mm 2 mps 720 mmHg 74%
    08:00 +29°C° 0 mm 2 mps 720 mmHg 68%
    09:00 +30°C° 0 mm 1 mps 720 mmHg 61%
    10:00 +32°C° 0 mm 1 mps 720 mmHg 54%
    11:00 +31°C° 0 mm 0 mps 720 mmHg 46%
    12:00 +34°C° 0 mm 1 mps 720 mmHg 42%
    13:00 +35°C° 0 mm 1 mps 719 mmHg 38%
    14:00 +37°C° 0 mm 2 mps 718 mmHg 33%
    15:00 +37°C° 0 mm 2 mps 718 mmHg 33%
    16:00 +37°C° 0 mm 2 mps 718 mmHg 32%
    17:00 +37°C° 0 mm 3 mps 717 mmHg 32%
    18:00 +37°C° 0 mm 3 mps 718 mmHg 35%
    19:00 +36°C° 0 mm 3 mps 718 mmHg 37%
    20:00 +35°C° 0 mm 3 mps 719 mmHg 40%
    21:00 +34°C° 0 mm 3 mps 719 mmHg 47%
    22:00 +33°C° 0 mm 3 mps 719 mmHg 54%
    23:00 +31°C° 0 mm 3 mps 719 mmHg 61%

    Tomorrow, 20 September, Friday

    Time Temperature Precipitation Wind Pressure Humidity
    00:00 +30°C° 0 mm 4 mps 718 mmHg 63%
    01:00 +29°C° 0 mm 4 mps 718 mmHg 65%
    02:00 +29°C° 0 mm 4 mps 718 mmHg 67%
    03:00 +29°C° 0 mm 3 mps 718 mmHg 68%
    04:00 +28°C° 0 mm 3 mps 718 mmHg 70%
    05:00 +28°C° 0 mm 3 mps 718 mmHg 71%
    06:00 +28°C° 0 mm 2 mps 718 mmHg 69%
    07:00 +29°C° 0 mm 2 mps 719 mmHg 67%
    08:00 +29°C° 0 mm 2 mps 720 mmHg 64%
    09:00 +31°C° 0 mm 2 mps 720 mmHg 59%
    10:00 +32°C° 0 mm 2 mps 720 mmHg 53%
    11:00 +35°C° 0 mm 2 mps 720 mmHg 48%
    12:00 +36°C° 0 mm 2 mps 719 mmHg 44%
    13:00 +36°C° 0 mm 1 mps 718 mmHg 40%
    14:00 +37°C° 0 mm 1 mps 718 mmHg 36%
    15:00 +37°C° 0 mm 1 mps 717 mmHg 36%
    16:00 +38°C° 0 mm 2 mps 717 mmHg 36%
    17:00 +38°C° 0 mm 2 mps 717 mmHg 36%
    18:00 +36°C° 0.5 mm 3 mps 717 mmHg 44%
    19:00 +33°C° 0.5 mm 4 mps 718 mmHg 53%
    20:00 +30°C° 0.5 mm 5 mps 718 mmHg 61%
    21:00 +30°C° 1.3 mm 5 mps 718 mmHg 62%
    22:00 +29°C° 1.3 mm 5 mps 719 mmHg 63%
    23:00 +28°C° 1.3 mm 5 mps 719 mmHg 65%

    Day after tomorrow, 21 September, Saturday

    Time Temperature Precipitation Wind Pressure Humidity
    00:00 +28°C° 0 mm 5 mps 719 mmHg 65%
    01:00 +28°C° 0 mm 5 mps 718 mmHg 65%
    02:00 +28°C° 0 mm 5 mps 718 mmHg 66%
    03:00 +28°C° 0 mm 4 mps 718 mmHg 66%
    04:00 +28°C° 0 mm 2 mps 718 mmHg 67%
    05:00 +28°C° 0 mm 1 mps 718 mmHg 68%
    06:00 +28°C° 0 mm 1 mps 718 mmHg 67%
    07:00 +28°C° 0 mm 1 mps 719 mmHg 65%
    08:00 +29°C° 0 mm 1 mps 719 mmHg 63%
    09:00 +30°C° 0 mm 1 mps 719 mmHg 58%
    10:00 +31°C° 0 mm 1 mps 719 mmHg 54%
    11:00 +32°C° 0 mm 1 mps 719 mmHg 49%
    12:00 +34°C° 0 mm 1 mps 719 mmHg 44%
    13:00 +35°C° 0 mm 1 mps 718 mmHg 40%
    14:00 +36°C° 0 mm 1 mps 718 mmHg 36%
    15:00 +36°C° 0 mm 1 mps 717 mmHg 35%
    16:00 +36°C° 0 mm 1 mps 717 mmHg 34%
    17:00 +37°C° 0 mm 1 mps 717 mmHg 34%
    18:00 +36°C° 0.1 mm 1 mps 717 mmHg 37%
    19:00 +35°C° 0.1 mm 1 mps 717 mmHg 41%
    20:00 +35°C° 0.1 mm 2 mps 718 mmHg 44%
    21:00 +34°C° 0 mm 2 mps 718 mmHg 47%
    22:00 +33°C° 0 mm 3 mps 718 mmHg 49%
    23:00 +33°C° 0 mm 4 mps 718 mmHg 52%

    22 September, Sunday

    Time Temperature Precipitation Wind Pressure Humidity
    00:00 +32°C° 0 mm 4 mps 717 mmHg 56%
    01:00 +30°C° 0 mm 4 mps 717 mmHg 60%
    02:00 +29°C° 0 mm 4 mps 717 mmHg 63%
    03:00 +29°C° 0 mm 4 mps 717 mmHg 65%
    04:00 +29°C° 0 mm 3 mps 717 mmHg 66%
    05:00 +28°C° 0 mm 3 mps 717 mmHg 68%
    06:00 +29°C° 0 mm 3 mps 718 mmHg 66%
    07:00 +29°C° 0 mm 4 mps 719 mmHg 65%
    08:00 +30°C° 0 mm 4 mps 719 mmHg 64%
    09:00 +31°C° 0 mm 3 mps 719 mmHg 60%
    10:00 +31°C° 0 mm 3 mps 719 mmHg 56%
    11:00 +32°C° 0 mm 2 mps 719 mmHg 53%
    12:00 +35°C° 0 mm 2 mps 719 mmHg 49%
    13:00 +36°C° 0 mm 2 mps 718 mmHg 45%
    14:00 +37°C° 0 mm 2 mps 717 mmHg 41%
    15:00 +37°C° 0 mm 3 mps 717 mmHg 40%
    16:00 +37°C° 0 mm 3 mps 717 mmHg 39%
    17:00 +37°C° 0 mm 3 mps 717 mmHg 39%
    18:00 +36°C° 0.1 mm 3 mps 717 mmHg 41%
    19:00 +35°C° 0.1 mm 3 mps 717 mmHg 44%
    20:00 +34°C° 0.1 mm 3 mps 717 mmHg 47%
    21:00 +34°C° 0.2 mm 3 mps 718 mmHg 50%
    22:00 +33°C° 0.2 mm 4 mps 718 mmHg 54%
    23:00 +32°C° 0.2 mm 4 mps 719 mmHg 57%

    23 September, Monday

    Time Temperature Precipitation Wind Pressure Humidity
    00:00 +32°C° 0.1 mm 4 mps 719 mmHg 60%
    01:00 +30°C° 0.1 mm 4 mps 719 mmHg 63%
    02:00 +30°C° 0.1 mm 3 mps 718 mmHg 66%
    03:00 +29°C° 0.1 mm 3 mps 718 mmHg 68%
    04:00 +29°C° 0.1 mm 2 mps 719 mmHg 70%
    05:00 +28°C° 0.1 mm 1 mps 719 mmHg 72%
    06:00 +29°C° 0 mm 3 mps 719 mmHg 71%
    07:00 +29°C° 0 mm 4 mps 720 mmHg 69%
    08:00 +30°C° 0 mm 5 mps 720 mmHg 68%
    09:00 +32°C° 0 mm 5 mps 720 mmHg 62%
    10:00 +33°C° 0 mm 4 mps 720 mmHg 56%
    11:00 +35°C° 0 mm 3 mps 720 mmHg 51%
    12:00 +36°C° 0 mm 3 mps 719 mmHg 47%
    13:00 +36°C° 0 mm 3 mps 719 mmHg 43%
    14:00 +37°C° 0 mm 2 mps 718 mmHg 39%
    15:00 +37°C° 0 mm 2 mps 718 mmHg 40%
    16:00 +37°C° 0 mm 2 mps 718 mmHg 41%
    17:00 +37°C° 0 mm 2 mps 717 mmHg 41%
    18:00 +35°C° 0.1 mm 3 mps 718 mmHg 46%
    19:00 +34°C° 0.1 mm 3 mps 718 mmHg 50%
    20:00 +33°C° 0.1 mm 3 mps 718 mmHg 55%
    21:00 +31°C° 1 mm 2 mps 718 mmHg 59%
    22:00 +30°C° 1 mm 2 mps 719 mmHg 62%
    23:00 +29°C° 1 mm 2 mps 719 mmHg 66%

    24 September, Tuesday

    Time Temperature Precipitation Wind Pressure Humidity
    00:00 +29°C° 0.3 mm 2 mps 719 mmHg 67%
    01:00 +29°C° 0.3 mm 2 mps 719 mmHg 69%
    02:00 +28°C° 0.3 mm 1 mps 719 mmHg 71%
    03:00 +28°C° 0 mm 1 mps 719 mmHg 72%
    04:00 +28°C° 0 mm 1 mps 719 mmHg 74%
    05:00 +27°C° 0 mm 1 mps 719 mmHg 75%
    06:00 +28°C° 0 mm 1 mps 719 mmHg 72%
    07:00 +28°C° 0 mm 1 mps 719 mmHg 69%
    08:00 +29°C° 0 mm 1 mps 720 mmHg 66%
    09:00 +30°C° 0 mm 1 mps 720 mmHg 60%
    10:00 +32°C° 0 mm 1 mps 720 mmHg 54%
    11:00 +34°C° 0 mm 2 mps 720 mmHg 49%
    12:00 +34°C° 0 mm 1 mps 719 mmHg 45%
    13:00 +35°C° 0 mm 1 mps 718 mmHg 41%
    14:00 +34°C° 0 mm 0 mps 718 mmHg 37%
    15:00 +34°C° 0 mm 0 mps 717 mmHg 36%
    16:00 +37°C° 0 mm 1 mps 717 mmHg 35%
    17:00 +37°C° 0 mm 1 mps 717 mmHg 34%
    18:00 +36°C° 0 mm 1 mps 717 mmHg 37%
    19:00 +35°C° 0 mm 1 mps 717 mmHg 40%
    20:00 +34°C° 0 mm 1 mps 717 mmHg 43%
    21:00 +34°C° 0 mm 3 mps 717 mmHg 45%
    22:00 +34°C° 0 mm 4 mps 718 mmHg 46%
    23:00 +33°C° 0 mm 5 mps 718 mmHg 48%
    Show more